Moose, WY

12:32 PM MST on December 08, 2016 (GMT -0700)
Jackson Hole

Weather History for KJAC - July, 2014

Change the Weather History Date:

Saturday, July 5, 2014

  Actual Average Record
Temperature  
Mean Temperature 64 °F -  
Max Temperature 84 °F 78 °F 89 °F (2007)
Min Temperature 44 °F 38 °F 32 °F (1969)
Degree Days  
Heating Degree Days 1    
Growing Degree Days 14 (Base 50)    
Moisture  
Dew Point 41 °F    
Average Humidity 56    
Maximum Humidity 87    
Minimum Humidity 13    
Precipitation  
Precipitation 0.00 in - - ()
Sea Level Pressure  
Sea Level Pressure 30.28 in    
Wind  
Wind Speed 3 mph (North)    
Max Wind Speed 18 mph    
Max Gust Speed 29 mph    
Visibility 10 miles    
Events      
Averages and records for this station are not official NWS values.
T = Trace of Precipitation, MM = Missing Value Source: NWS Daily Summary

Daily Weather History Graph

Daily Weather History Graph

Search for Another Location

Airport or City:

Trip Planner

Search our weather history database for the weather conditions in past years. The results will help you decide how hot, cold, wet, or windy it might be!

Date:

Astronomy

Jul. 05, 2014 Rise Set
Actual Time 5:47 AM MDT 9:07 PM MDT
Civil Twilight 5:12 AM MDT 9:42 PM MDT
Nautical Twilight 4:26 AM MDT 10:28 PM MDT
Astronomical Twilight 3:28 AM MDT 11:25 PM MDT
Moon 2:01 PM MDT (7/5) 12:46 AM MDT (7/5)
Length of Visible Light 16h 30m
Length of Day
15h 19m
First Quarter, 53% of the Moon is Illuminated
Jul 5
First Quarter
Jul 12
Full
Jul 18
Last Quarter
Jul 26
New
Aug 3
First Quarter

Hourly Weather History & Observations

Time (MDT) Temp. Windchill Dew Point Humidity Pressure Visibility Wind Dir Wind Speed Gust Speed Precip Events Conditions
12:15 AM 55.4 °F - 44.6 °F 67% 30.24 in 10.0 mi Calm Calm - N/A   Clear
12:35 AM 53.6 °F - 44.6 °F 72% 30.25 in 10.0 mi Calm Calm - N/A   Clear
12:55 AM 53.6 °F - 44.6 °F 72% 30.25 in 10.0 mi Calm Calm - N/A   Clear
1:15 AM 53.6 °F - 42.8 °F 67% 30.25 in 10.0 mi Calm Calm - N/A   Clear
1:35 AM 51.8 °F - 44.6 °F 76% 30.26 in 10.0 mi Calm Calm - N/A   Clear
1:55 AM 51.8 °F - 44.6 °F 76% 30.26 in 10.0 mi Calm Calm - N/A   Clear
2:15 AM 51.8 °F - 46.4 °F 82% 30.26 in 10.0 mi Calm Calm - N/A   Clear
2:35 AM 55.4 °F - 44.6 °F 67% 30.26 in 10.0 mi Calm Calm - N/A   Clear
2:55 AM 55.4 °F - 44.6 °F 67% 30.26 in 10.0 mi Calm Calm - N/A   Clear
3:15 AM 51.8 °F - 44.6 °F 76% 30.26 in 10.0 mi Calm Calm - N/A   Clear
3:35 AM 48.2 °F - 44.6 °F 87% 30.26 in 10.0 mi North 8.1 mph - N/A   Clear
3:55 AM 48.2 °F - 42.8 °F 82% 30.27 in 10.0 mi North 8.1 mph - N/A   Clear
4:15 AM 46.4 °F 42.4 °F 42.8 °F 87% 30.27 in 10.0 mi North 8.1 mph - N/A   Clear
4:35 AM 46.4 °F 41.9 °F 42.8 °F 87% 30.28 in 10.0 mi North 9.2 mph - N/A   Clear
4:55 AM 46.4 °F 41.9 °F 42.8 °F 87% 30.28 in 10.0 mi North 9.2 mph - N/A   Clear
5:15 AM 46.4 °F 43.5 °F 42.8 °F 87% 30.29 in 10.0 mi NE 5.8 mph - N/A   Clear
5:35 AM 46.4 °F 43.5 °F 42.8 °F 87% 30.29 in 10.0 mi North 5.8 mph - N/A   Clear
5:55 AM 44.6 °F 40.2 °F 39.2 °F 81% 30.29 in 10.0 mi North 8.1 mph - N/A   Clear
6:15 AM 44.6 °F 41.4 °F 41.0 °F 87% 30.30 in 10.0 mi NNE 5.8 mph - N/A   Clear
6:35 AM 46.4 °F 45.2 °F 41.0 °F 81% 30.30 in 10.0 mi NNE 3.5 mph - N/A   Clear
6:55 AM 46.4 °F - 42.8 °F 87% 30.30 in 10.0 mi Calm Calm - N/A   Clear
7:55 AM 53.6 °F - 44.6 °F 72% 30.31 in 10.0 mi Calm Calm - N/A   Clear
8:55 AM 60.8 °F - 44.6 °F 55% 30.32 in 10.0 mi Calm Calm - N/A   Clear
10:15 AM 68.0 °F - 46.4 °F 46% 30.31 in 10.0 mi SSE 8.1 mph - N/A   Clear
10:55 AM 66.2 °F - 44.6 °F 46% 30.31 in 10.0 mi Calm Calm - N/A   Clear
11:57 AM 75.2 °F - 50.0 °F 41% 30.29 in 10.0 mi South 5.8 mph - N/A   Clear
12:55 PM 84.2 °F - 37.4 °F 19% 30.29 in 10.0 mi SW 13.8 mph 27.6 mph N/A   Clear
1:58 PM 84.2 °F - 37.4 °F 19% 30.28 in 10.0 mi SW 18.4 mph 28.8 mph N/A   Clear
4:15 PM 84.2 °F - 28.4 °F 13% 30.30 in 10.0 mi North - - N/A   Clear
5:54 PM 80.6 °F - 32.0 °F 17% 30.27 in 10.0 mi SSW 16.1 mph 21.9 mph N/A   Clear
7:58 PM 77.0 °F - 37.4 °F 24% 30.27 in 10.0 mi SW 5.8 mph - N/A   Clear
8:35 PM 71.6 °F - 37.4 °F 29% 30.27 in 10.0 mi SW 8.1 mph - N/A   Clear
8:55 PM 71.6 °F - 35.6 °F 27% 30.27 in 10.0 mi South 4.6 mph - N/A   Clear
9:15 PM 71.6 °F - 37.4 °F 29% 30.28 in 10.0 mi Calm Calm - N/A   Clear
9:35 PM 66.2 °F - 37.4 °F 35% 30.29 in 10.0 mi East 3.5 mph - N/A   Clear
9:55 PM 69.8 °F - 35.6 °F 28% 30.29 in 10.0 mi Calm Calm - N/A   Clear
10:15 PM 66.2 °F - 35.6 °F 32% 30.29 in 10.0 mi Calm Calm - N/A   Clear
10:35 PM 64.4 °F - 37.4 °F 37% 30.29 in 10.0 mi Calm Calm - N/A   Clear
10:55 PM 64.4 °F - 37.4 °F 37% 30.29 in 10.0 mi Calm Calm - N/A   Clear
11:15 PM 68.0 °F - 35.6 °F 30% 30.29 in 10.0 mi Calm Calm - N/A   Clear
11:35 PM 66.2 °F - 35.6 °F 32% 30.29 in 10.0 mi Calm Calm - N/A   Clear
11:55 PM 62.6 °F - 37.4 °F 39% 30.29 in 10.0 mi Calm Calm - N/A   Clear